Lid_Strength_Index
8 13 16 13 12 12 13 15 17 15 13 15 15 15 12 12 12 12 12 12 12 11 10 9 6 4 2 2 2 2 2 2 2 2 3 3 3 1 2 2 2 2 2 2
10 14 13 11 11 13 14 15 16 14 13 14 15 16 14 13 13 12 12 12 11 11 11 10 10 8 4 3 2 2 2 2 1 1 1 2 2 2 2 1 1 2 2 2
12 12 10 11 13 14 15 16 16 16 13 14 17 18 15 13 14 12 12 13 12 12 11 11 11 10 8 5 4 3 2 2 1 1 2 3 3 3 3 2 2 1 1 1
12 9 10 12 13 13 16 13 13 14 15 19 16 22 18 15 15 14 13 13 12 12 12 11 10 11 11 9 6 4 3 2 1 1 2 2 2 3 2 2 2 2 1 1
12 12 12 12 11 11 13 11 12 13 15 18 19 19 19 17 16 15 13 13 13 12 11 11 10 10 10 10 10 7 5 3 2 1 1 2 3 2 2 2 2 2 1 2
11 8 9 10 9 9 9 11 12 13 15 21 18 18 21 18 16 15 14 13 13 13 12 10 10 9 10 10 10 9 8 7 4 2 2 2 2 2 2 2 2 2 2 2
11 12 9 9 11 10 11 13 18 20 20 22 18 18 19 15 14 14 13 12 12 12 12 12 12 10 10 10 10 9 9 9 7 6 4 3 2 2 2 2 2 2 2 2
16 17 11 9 11 12 12 12 17 21 21 20 16 20 18 14 13 12 12 12 11 11 12 12 12 12 11 11 10 9 9 9 9 9 8 7 6 3 2 2 2 2 2 2
16 15 11 10 9 9 13 15 12 16 22 20 18 17 14 13 12 12 12 11 11 11 11 11 11 11 11 10 10 9 9 9 8 8 8 8 8 8 7 4 2 1 1 2
12 16 12 11 9 10 11 10 16 16 22 24 19 19 18 14 13 12 12 11 11 10 10 10 10 11 10 9 9 9 8 8 8 8 7 7 7 7 7 7 6 4 2 2
10 13 13 12 13 14 13 14 14 14 15 20 22 19 15 14 13 12 12 11 11 10 10 10 9 10 9 9 9 9 8 8 8 8 7 6 6 6 6 6 5 5 4 3
10 12 16 14 11 10 11 13 13 17 18 16 16 17 12 12 12 12 11 10 10 10 10 10 10 10 9 9 9 8 8 8 8 8 7 7 6 6 6 5 5 5 5 4
10 13 20 16 14 12 13 12 11 12 13 17 19 17 10 11 12 11 11 11 10 10 10 9 9 10 10 9 9 9 9 8 8 8 8 7 8 8 7 6 5 5 5 5
8 12 14 18 16 13 14 13 12 13 17 17 16 14 13 12 12 11 10 9 10 9 9 9 9 9 9 9 10 10 10 10 10 9 8 9 9 8 8 8 8 7 7 7
11 18 15 14 13 12 13 13 13 14 14 16 14 15 13 12 12 12 11 10 9 9 9 10 10 9 10 11 11 11 11 11 11 10 11 12 12 11 10 10 10 9 9 8
10 20 16 19 13 12 14 13 13 13 13 13 13 14 10 11 12 12 11 11 10 10 9 10 10 11 11 12 13 12 11 12 12 12 13 13 13 13 13 12 12 11 10 10
12 17 21 23 17 19 22 17 13 13 13 13 15 13 11 11 11 11 11 10 10 9 9 10 11 12 12 14 14 14 13 14 14 14 14 15 15 14 14 13 13 13 12 11
15 16 20 24 24 27 16 14 14 13 12 11 11 10 9 9 9 10 9 10 10 9 9 10 12 13 14 15 16 15 15 15 15 15 15 16 16 16 15 15 15 14 14 13
11 14 22 23 30 20 15 15 15 14 15 12 11 11 10 10 11 11 9 8 8 9 10 12 14 14 15 16 16 15 15 15 15 16 16 16 16 16 15 16 16 15 15 14
11 12 18 25 26 26 17 14 12 12 18 11 11 11 11 10 13 13 9 8 8 10 11 13 14 14 16 16 16 15 16 17 17 17 16 16 16 16 16 16 16 16 15 14
17 15 15 18 18 20 13 11 11 19 15 10 10 10 9 10 9 8 8 8 9 11 12 13 14 15 16 16 16 15 16 17 16 16 15 16 16 16 15 16 16 15 15 15
20 21 21 18 18 23 12 11 14 11 10 10 10 9 9 9 9 9 9 9 10 12 13 13 14 15 16 16 16 16 17 16 16 15 16 16 17 16 15 17 16 16 16 16
19 15 19 17 18 12 11 11 10 10 10 11 11 10 10 10 10 10 10 11 12 14 14 15 16 16 17 17 17 17 18 17 16 17 17 17 17 16 16 18 17 17 17 16
14 12 14 15 13 11 10 10 10 10 10 10 10 10 11 11 10 11 11 12 14 15 16 16 16 17 18 18 18 19 18 17 19 19 18 16 17 17 16 16 16 17 17 18
13 13 15 15 12 11 11 11 10 10 10 10 11 11 12 13 12 13 13 15 16 17 17 18 18 19 20 20 20 21 19 19 18 17 17 17 17 18 17 16 14 15 15 15
13 13 15 15 12 12 12 11 11 12 13 13 14 14 14 14 15 15 16 17 17 17 18 19 19 20 20 20 20 20 19 18 18 17 17 17 17 17 16 17 17 13 12 12